Weather History for Keahole Point, HI

Change the Weather History Date:

Tuesday, December 4, 2012

  Actual Average Record
Temperature  
Mean Temperature 77 °F -  
Max Temperature 81 °F 80 °F 88 °F (1983)
Min Temperature 73 °F 68 °F 66 °F (2000)
Cooling Degree Days 12    
Growing Degree Days 27 (Base 50)    
Moisture  
Dew Point 70 °F    
Average Humidity 76    
Maximum Humidity 84    
Minimum Humidity 69    
Precipitation  
Precipitation 0.00 in - - ()
Sea Level Pressure  
Sea Level Pressure 29.99 in    
Wind  
Wind Speed 3 mph (WNW)    
Max Wind Speed 8 mph    
Max Gust Speed -    
Visibility 10 miles    
Events      
Averages and records for this station are not official NWS values.
T = Trace of Precipitation, MM = Missing Value Source: NWS Daily Summary

Daily Weather History Graph

Daily Weather History Graph

Search for Another Location

Airport:

Trip Planner

Search our weather history database for the weather conditions in past years. The results will help you decide how hot, cold, wet, or windy it might be!

Date:

Astronomy

Dec. 04, 2012 Rise Set
Actual Time 6:44 AM HST 5:44 PM HST
Civil Twilight 6:20 AM HST 6:08 PM HST
Nautical Twilight 5:53 AM HST 6:35 PM HST
Astronomical Twilight 5:26 AM HST 7:02 PM HST
Moon 11:11 PM HST (12/4) 11:12 AM HST (12/4)
Length of Visible Light 11h 47m
Length of Day
10h 59m
Waning Gibbous, 67% of the Moon is Illuminated
Dec 4
Waning Gibbous
Dec 6
Last Quarter
Dec 12
New
Dec 19
First Quarter
Dec 28
Full

Hourly Weather History & Observations

Time (HST) Temp. Heat Index Dew Point Humidity Pressure Visibility Wind Dir Wind Speed Gust Speed Precip Events Conditions
12:53 AM 77.0 °F - 72.0 °F 84% 29.99 in 10.0 mi Calm Calm - N/A   Overcast
1:53 AM 77.0 °F - 72.0 °F 84% 29.98 in 10.0 mi Calm Calm - N/A   Scattered Clouds
2:53 AM 75.0 °F - 68.0 °F 79% 29.96 in 10.0 mi Calm Calm - N/A   Clear
3:53 AM 73.9 °F - 66.9 °F 79% 29.97 in 10.0 mi NE 3.5 mph - N/A   Scattered Clouds
4:53 AM 73.0 °F - 66.9 °F 81% 29.97 in 10.0 mi North 4.6 mph - N/A   Clear
5:53 AM 73.0 °F - 66.9 °F 81% 29.98 in 10.0 mi ENE 6.9 mph - N/A   Clear
6:53 AM 75.0 °F - 68.0 °F 79% 30.01 in 10.0 mi Calm Calm - N/A   Mostly Cloudy
7:37 AM 75.2 °F - 66.2 °F 73% 30.02 in 10.0 mi Calm Calm - N/A   Scattered Clouds
7:53 AM 78.1 °F - 68.0 °F 71% 30.02 in 10.0 mi Calm Calm - N/A   Clear
8:53 AM 79.0 °F - 68.0 °F 69% 30.03 in 10.0 mi Calm Calm - N/A   Clear
9:53 AM 80.1 °F 83.6 °F 71.1 °F 74% 30.03 in 10.0 mi WNW 5.8 mph - N/A   Clear
10:53 AM 80.1 °F 83.6 °F 71.1 °F 74% 30.02 in 10.0 mi West 6.9 mph - N/A   Clear
11:53 AM 81.0 °F 84.4 °F 70.0 °F 69% 30.00 in 10.0 mi West 6.9 mph - N/A   Overcast
12:53 PM 80.1 °F 83.6 °F 71.1 °F 74% 29.98 in 10.0 mi West 8.1 mph - N/A   Overcast
1:53 PM 80.1 °F 83.6 °F 71.1 °F 74% 29.96 in 10.0 mi West 8.1 mph - N/A   Overcast
2:53 PM 80.1 °F 83.2 °F 70.0 °F 71% 29.96 in 10.0 mi West 8.1 mph - N/A   Overcast
3:53 PM 80.1 °F 83.2 °F 70.0 °F 71% 29.97 in 10.0 mi NW 8.1 mph - N/A   Overcast
4:53 PM 80.1 °F 83.2 °F 70.0 °F 71% 29.98 in 10.0 mi WNW 6.9 mph - N/A   Mostly Cloudy
5:17 PM 78.8 °F - 69.8 °F 74% 29.98 in 10.0 mi WNW 5.8 mph - N/A   Overcast
5:30 PM 78.8 °F - 69.8 °F 74% 29.97 in 10.0 mi WNW 6.9 mph - N/A   Overcast
5:53 PM 79.0 °F - 71.1 °F 77% 29.99 in 10.0 mi NW 6.9 mph - N/A   Overcast
6:53 PM 78.1 °F - 71.1 °F 79% 29.99 in 10.0 mi North 4.6 mph - N/A   Overcast
7:53 PM 78.1 °F - 71.1 °F 79% 30.00 in 10.0 mi NW 3.5 mph - N/A   Overcast
8:53 PM 78.1 °F - 71.1 °F 79% 30.02 in 10.0 mi SE 4.6 mph - N/A   Mostly Cloudy
9:53 PM 78.1 °F - 70.0 °F 76% 30.02 in 10.0 mi SSE 5.8 mph - N/A   Overcast
10:53 PM 78.1 °F - 68.0 °F 71% 30.03 in 10.0 mi SSE 3.5 mph - N/A   Overcast
11:53 PM 78.1 °F - 69.1 °F 74% 30.03 in 10.0 mi ESE 4.6 mph - N/A   Overcast